Pagina principale
METAR-TAF:

METAR-TAF

Aeroporti :

Ingolstadt, Germania

latitudine: 48-43N, longitudine: 011-32E, altezza: 367 m

Osservazione

Il bollettino è stato emesso 40 minuti fa, alle 23:20 UTC
Vento 9 kt da ovest
Temperature 7°C
Umidità 81%
Pressione 1020 hPa
Visibilità: 4200 m

METAR: ETSI 242320Z AUTO 27009KT 4200 // ////// 07/04 Q1020 ///

Ora: 01:00 (00:00 UTC)


TAF: mancante

Osservazioni e previsioni meteorologiche di più di 4000 aeroporti (messaggi METAR e TAF).

Le stazioni disponibili sono rappresentate dai dischi gialli e rossi sulla carta.

Puntare il mouse per vedere il nome della stazione.

Clicca sopra per visualizzare le osservazioni e previsioni meteorologiche.

Per cambiare la mappa : fare clic sui pulsanti verdi con una croce nera per ingrandire, il pulsante verde con un trattino per diminuire, o sulla freccia verde per le mappe adiacenti.


METAR-TAF: